Погода в Росстанях

Россия / Орловская область     52°20′40″N   37°31′14″E
темп.,
°C
ветер,
м/с
пор.,
м/с
влажн.,
%
обл.,
%
осадки,
мм/ч
давл.,
гПа
погр.,
м
11 мая, вт
вт1100:00+9ссв8177873 0.0 1020663
03:00+9ссв81883100 0.1 1019512
06:00+9ссв8188799 0.0 1019533
09:00+13св9128087 0.1 1019745
12:00+12в61089100 0.0 1021954
15:00+9св489267 1.0 1022399
18:00+13вюв710685 0.0 10231139
21:00+8вюв612815 0.0 1025511
12 мая, ср
ср1200:00+5в359121 0.0 1026124
03:00+5всв36928 0.0 1025119
06:00+6всв41085100 0.0 1025275
09:00+10св6978100 0.0 1023535
12:00+9ссв4486100 1.6 1021488
15:00+9всв2280100 2.1 1019659
18:00+10вюв3881100 0.1 1018666
21:00+9вюв51093100 0.6 1018272
13 мая, чт
чт1300:00+9вюв41096100 0.7 1018388
03:00+9вюв5119690 7.0 1017381
06:00+9юв3991100 0.0 1017272
09:00+14ююв3674100 0.0 1017684
12:00+17ююв4664100 0.2 10171492
15:00+17ююв5666100 0.8 10161197
18:00+16юв46735 0.5 1016615
21:00+12юв33863 0.5 101742
14 мая, пт
пт1400:00+11вюв4886100 0.0 1017130
03:00+12вюв41186100 0.0 1016218
06:00+13в41193100 0.0 1016253
09:00+18вюв697984 0.1 1015503
12:00+21юв6966100 0.0 10141028
15:00+23ююв6106744 1.6 10131514
18:00+22ююв487589 1.1 1012339
21:00+18ю338899 1.3 101236
15 мая, сб
сб1500:00+16ююз61395100 3.1 1012334
03:00+15св2296100 9.5 101150
06:00+15вюв359498 0.1 1012139
09:00+19в348359 0.2 1010394
12:00+22ю5666100 1.8 10111308
15:00+22ю566449 1.0 10101186
18:00
21:00+16сз2286100 4.8 100927